ATLAS 5 CENTAUR DEB, 44690

Orbit data source: Space-Track

ATLAS 5 CENTAUR DEB, 44690 is space debris in HEO originally from a launch on Wed, 17 Oct 2018 UTC launched from the Air Force Eastern Test Range (AFETR). Debris objects in space refer to the collection of defunct objects orbiting the Earth. Examples of debris include non-operational satellites, rocket bodies, and fragments generated from explosions, collisions, or faulty payload assembly.

Loading next visibility...
Identifier
44690, 2018-079BC
Orbit
HEO
Country
Flag of USUS
Related business
Flag of USUnited Launch Alliance/Lockheed Martin (US)
Manufacturer
ULA Decatur
Mission
Spacecraft
Bus & Motor
Unknown
Mass
Unknown
Launch date (UTC)
2018-10-17 (8 years ago)
Launch vehicle
Unknown
Launch site
Air Force Eastern Test Range (AFETR)
Object type
Payload
Rocket body
Debris
Shape & HBR
Unknown shape, 1.1 m
Radar Cross Section
RCS unknown

Expand to show TLE details & history
Last TLE update: 1 day ago

TLE from 1 day ago
0 ATLAS 5 CENTAUR DEB
1 44690U 18079BC  26126.49284367 -.00000123  00000-0  00000-0 0  9995
2 44690  12.9952  40.2813 4415674 313.5888  17.3782  1.88495889 46310
Epoch: 2026-05-06T11:49Z
TLE epoch observation values (Epoch: 2026-05-06T11:49:41.693Z)
Latitude
Longitude
-1.54909°
Altitude
10,703.941 km
Speed
5.681 km/s
True Right ascension
02h 40m 54s
True Declination
0° 00' 00"
Sunlit
Object was in daylight at epoch
Visualization orbit readout
Latitude
Unknown
Longitude
Unknown
Altitude
Unknown
Speed
Unknown
Apparent Right ascension
Unknown
Apparent Declination
Unknown
Sunlit
N/A
Visualization observer readout
Local Sidereal Time
00:10:13
Azimuth
Unknown
Elevation
Unknown
Doppler factor
Unknown
Orbital elements
Apogee altitude
33,530.578 km
Perigee altitude
9,081.652 km
Semi-major axis
27,684.252 km
Eccentricity
0.44157
Inclination
12.9952°
RAAN
40.2813°
Arg. of periapsis
313.5888°
True anomaly
46.6511°
Mean anomaly
17.3782°
Eccentric anomaly
30.04561°
Mean motion
0.47119 °/min
Orbital period
764.03 mins
BSTAR
0
Loading maneuver chart data...
Computing Atmospheric mass density...

Documentation

Showing up to 5 results
|